| time (UTC) | temp C | wind direction | speed KPH | gust KPH | rain 1hr cm | rain 24hr cm | rain mn cm | humidity % | barometer mb |
| 20260506002055 | 10 | 93 | 0.0 | 3.2 | 0.20 | 0.48 | 0.43 | 99 | 1006.2 |
| 20260506000055 | 10 | 63 | 0.0 | 9.7 | 0.20 | 0.41 | 0.36 | 99 | 1006.1 |
| 20260505235055 | 10 | 140 | 3.2 | 4.8 | 0.20 | 0.41 | 0.33 | 99 | 1006.4 |
| 20260505234054 | 10 | 67 | 3.2 | 9.7 | 0.20 | 0.36 | 0.28 | 99 | 1006.5 |
| 20260505233054 | 10 | 105 | 1.6 | 6.4 | 0.20 | 0.33 | 0.25 | 99 | 1006.4 |
| 20260505231054 | 10 | 63 | 1.6 | 6.4 | 0.20 | 0.28 | 0.20 | 99 | 1006.3 |
| 20260505230055 | 10 | 81 | 1.6 | 6.4 | 0.15 | 0.23 | 0.15 | 99 | 1006.6 |
| 20260505225055 | 10 | 19 | 0.0 | 4.8 | 0.13 | 0.20 | 0.13 | 99 | 1006.7 |
| 20260505224055 | 10 | 39 | 0.0 | 11.3 | 0.08 | 0.15 | 0.08 | 99 | 1006.6 |
| 20260505222055 | 10 | 359 | 4.8 | 9.7 | 0.00 | 0.10 | 0.00 | 99 | 1006.8 |
| 20260505221055 | 10 | 158 | 1.6 | 3.2 | 0.03 | 0.10 | 0.00 | 99 | 1007.0 |
| 20260505220056 | 10 | 34 | 3.2 | 4.8 | 0.03 | 0.10 | 0.00 | 99 | 1006.8 |
| 20260505214055 | 11 | 66 | 3.2 | 6.4 | 0.03 | 0.10 | 0.10 | 99 | 1007.1 |
| 20260505213055 | 11 | 322 | 4.8 | 9.7 | 0.03 | 0.13 | 0.10 | 99 | 1007.1 |
| 20260505212054 | 11 | 80 | 0.0 | 6.4 | 0.03 | 0.13 | 0.10 | 99 | 1007.1 |
| 20260505211054 | 11 | 73 | 4.8 | 9.7 | 0.00 | 0.10 | 0.08 | 99 | 1007.3 |
| 20260505210055 | 11 | 62 | 1.6 | 4.8 | 0.00 | 0.13 | 0.08 | 99 | 1007.2 |
| 20260505204055 | 11 | 50 | 0.0 | 11.3 | 0.00 | 0.13 | 0.08 | 99 | 1007.4 |
| 20260505202054 | 11 | 24 | 4.8 | 6.4 | 0.00 | 0.13 | 0.08 | 99 | 1007.4 |
| 20260505201055 | 11 | 27 | 0.0 | 6.4 | 0.00 | 0.13 | 0.08 | 99 | 1007.3 |
| 20260505200055 | 11 | 117 | 0.0 | 6.4 | 0.00 | 0.13 | 0.08 | 99 | 1007.3 |
| 20260505195056 | 11 | 54 | 0.0 | 9.7 | 0.00 | 0.15 | 0.08 | 99 | 1007.2 |
| 20260505194055 | 11 | 42 | 0.0 | 9.7 | 0.00 | 0.15 | 0.08 | 99 | 1007.3 |
| 20260505193055 | 11 | 31 | 1.6 | 6.4 | 0.00 | 0.18 | 0.08 | 99 | 1007.3 |
| 20260505192055 | 11 | 10 | 3.2 | 9.7 | 0.00 | 0.20 | 0.08 | 99 | 1007.2 |
| 20260505190054 | 11 | 80 | 0.0 | 9.7 | 0.00 | 0.46 | 0.08 | 99 | 1007.1 |
| 20260505185055 | 11 | 69 | 0.0 | 9.7 | 0.00 | 0.46 | 0.08 | 98 | 1007.3 |
| 20260505184055 | 11 | 16 | 0.0 | 4.8 | 0.00 | 0.46 | 0.08 | 98 | 1007.3 |
| 20260505183055 | 11 | 64 | 1.6 | 4.8 | 0.00 | 0.46 | 0.08 | 98 | 1007.4 |
| 20260505182054 | 11 | 19 | 1.6 | 9.7 | 0.00 | 0.46 | 0.08 | 98 | 1007.3 |
| 20260505180054 | 11 | 33 | 0.0 | 9.7 | 0.00 | 0.46 | 0.08 | 97 | 1007.3 |
| 20260505175054 | 11 | 66 | 0.0 | 6.4 | 0.00 | 0.46 | 0.08 | 97 | 1007.3 |
| 20260505174054 | 11 | 54 | 1.6 | 6.4 | 0.00 | 0.46 | 0.08 | 97 | 1007.5 |
| 20260505173054 | 11 | 91 | 1.6 | 3.2 | 0.00 | 0.46 | 0.08 | 97 | 1007.5 |
| 20260505172055 | 11 | 97 | 0.0 | 12.9 | 0.00 | 0.46 | 0.08 | 97 | 1007.6 |
| 20260505171055 | 11 | 88 | 1.6 | 6.4 | 0.00 | 0.46 | 0.08 | 97 | 1007.4 |
| 20260505170056 | 11 | 62 | 0.0 | 11.3 | 0.00 | 0.46 | 0.08 | 96 | 1007.5 |
| 20260505165054 | 11 | 58 | 1.6 | 11.3 | 0.00 | 0.46 | 0.08 | 96 | 1007.4 |
| 20260505163055 | 11 | 47 | 0.0 | 6.4 | 0.00 | 0.46 | 0.08 | 96 | 1007.8 |
| 20260505162054 | 11 | 77 | 0.0 | 6.4 | 0.00 | 0.46 | 0.08 | 96 | 1007.6 |
| 20260505161055 | 11 | 346 | 3.2 | 4.8 | 0.00 | 0.46 | 0.08 | 96 | 1007.7 |
| 20260505153055 | 11 | 50 | 0.0 | 6.4 | 0.00 | 0.46 | 0.08 | 96 | 1008.1 |
| 20260505152055 | 11 | 83 | 0.0 | 9.7 | 0.00 | 0.46 | 0.08 | 95 | 1008.3 |
| 20260505151055 | 11 | 62 | 0.0 | 6.4 | 0.00 | 0.46 | 0.08 | 95 | 1008.2 |
| 20260505124055 | 11 | 33 | 3.2 | 12.9 | 0.00 | 0.46 | 0.08 | 91 | 1008.9 |
| 20260505123055 | 11 | 59 | 3.2 | 9.7 | 0.00 | 0.46 | 0.08 | 92 | 1009.1 |
| 20260505122054 | 11 | 330 | 1.6 | 9.7 | 0.00 | 0.46 | 0.08 | 92 | 1009.3 |
| 20260505120055 | 11 | 355 | 1.6 | 9.7 | 0.00 | 0.46 | 0.08 | 93 | 1009.1 |
| 20260505115055 | 11 | 35 | 1.6 | 6.4 | 0.00 | 0.46 | 0.08 | 94 | 1009.2 |
| 20260505114055 | 11 | 340 | 4.8 | 11.3 | 0.00 | 0.46 | 0.08 | 94 | 1009.3 |
| 20260505113055 | 11 | 356 | 1.6 | 12.9 | 0.00 | 0.46 | 0.08 | 94 | 1009.4 |
| 20260505112055 | 10 | 15 | 6.4 | 9.7 | 0.00 | 0.46 | 0.08 | 94 | 1009.5 |
| 20260505111055 | 10 | 319 | 6.4 | 12.9 | 0.00 | 0.46 | 0.08 | 95 | 1009.6 |
| 20260505102055 | 10 | 39 | 3.2 | 6.4 | 0.00 | 0.46 | 0.08 | 98 | 1009.7 |
| 20260505100058 | 10 | 26 | 6.4 | 9.7 | 0.00 | 0.46 | 0.08 | 98 | 1009.9 |
| 20260505095054 | 10 | 17 | 1.6 | 9.7 | 0.00 | 0.46 | 0.08 | 98 | 1009.9 |
| 20260505094055 | 10 | 354 | 4.8 | 6.4 | 0.00 | 0.46 | 0.08 | 98 | 1009.9 |
| 20260505093054 | 10 | 63 | 4.8 | 11.3 | 0.00 | 0.46 | 0.08 | 98 | 1009.8 |
| 20260505092055 | 10 | 303 | 4.8 | 9.7 | 0.00 | 0.46 | 0.08 | 99 | 1009.9 |
| 20260505091054 | 10 | 355 | 3.2 | 6.4 | 0.00 | 0.46 | 0.08 | 99 | 1009.9 |
| 20260505090054 | 10 | 1 | 1.6 | 9.7 | 0.00 | 0.46 | 0.08 | 99 | 1009.9 |
| 20260505085054 | 10 | 36 | 3.2 | 9.7 | 0.00 | 0.46 | 0.08 | 99 | 1009.7 |
| 20260505083055 | 10 | 37 | 3.2 | 4.8 | 0.00 | 0.46 | 0.08 | 99 | 1009.9 |
| 20260505081055 | 10 | 40 | 0.0 | 4.8 | 0.00 | 0.46 | 0.08 | 99 | 1010.0 |
| 20260505080055 | 10 | 48 | 1.6 | 3.2 | 0.00 | 0.46 | 0.08 | 99 | 1009.9 |
| 20260505075054 | 10 | 313 | 3.2 | 4.8 | 0.00 | 0.46 | 0.08 | 99 | 1010.1 |
| 20260505074055 | 10 | 32 | 3.2 | 6.4 | 0.00 | 0.46 | 0.08 | 99 | 1010.0 |
| 20260505073055 | 10 | 39 | 1.6 | 6.4 | 0.00 | 0.46 | 0.08 | 99 | 1010.0 |
| 20260505071055 | 10 | 353 | 0.0 | 4.8 | 0.00 | 0.46 | 0.08 | 99 | 1010.0 |
| 20260505070055 | 10 | 323 | 0.0 | 6.4 | 0.00 | 0.46 | 0.08 | 99 | 1010.1 |
| 20260505064055 | 10 | 22 | 1.6 | 4.8 | 0.00 | 0.46 | 0.08 | 99 | 1009.9 |
| 20260505063055 | 10 | 326 | 1.6 | 4.8 | 0.00 | 0.46 | 0.08 | 99 | 1010.1 |
| 20260505062054 | 10 | 32 | 1.6 | 3.2 | 0.00 | 0.46 | 0.08 | 99 | 1010.1 |
| 20260505061055 | 10 | 311 | 0.0 | 3.2 | 0.00 | 0.46 | 0.08 | 99 | 1010.0 |
| 20260505060055 | 10 | 314 | 0.0 | 4.8 | 0.00 | 0.46 | 0.08 | 99 | 1010.0 |
| 20260505055055 | 11 | 358 | 0.0 | 4.8 | 0.00 | 0.46 | 0.08 | 99 | 1010.1 |
| 20260505053054 | 11 | 13 | 3.2 | 6.4 | 0.00 | 0.46 | 0.08 | 99 | 1010.0 |
| 20260505052056 | 11 | 357 | 1.6 | 3.2 | 0.00 | 0.46 | 0.08 | 99 | 1009.9 |
| 20260505051055 | 11 | 31 | 1.6 | 6.4 | 0.00 | 0.46 | 0.08 | 99 | 1010.0 |
| 20260505041055 | 12 | 13 | 0.0 | 0.0 | 0.00 | 0.46 | 0.08 | 99 | 1009.8 |
| 20260505035055 | 12 | 342 | 0.0 | 0.0 | 0.00 | 0.46 | 0.08 | 99 | 1010.0 |
| 20260505034054 | 13 | 3 | 0.0 | 0.0 | 0.00 | 0.46 | 0.08 | 99 | 1009.9 |
| 20260505032054 | 12 | 257 | 0.0 | 0.0 | 0.00 | 0.46 | 0.08 | 99 | 1009.8 |
| 20260505031054 | 12 | 257 | 0.0 | 0.0 | 0.00 | 0.46 | 0.08 | 99 | 1010.0 |
| 20260505030055 | 12 | 257 | 0.0 | 0.0 | 0.00 | 0.46 | 0.08 | 99 | 1010.1 |
| 20260505025056 | 12 | 257 | 0.0 | 0.0 | 0.00 | 0.46 | 0.08 | 99 | 1010.0 |
| 20260505024055 | 12 | 257 | 0.0 | 0.0 | 0.00 | 0.46 | 0.08 | 99 | 1010.0 |
| 20260505023056 | 12 | 257 | 0.0 | 0.0 | 0.00 | 0.46 | 0.08 | 99 | 1010.0 |
| 20260505021104 | 12 | 257 | 0.0 | 0.0 | 0.03 | 0.46 | 0.08 | 98 | 1010.2 |
| 20260505020058 | 12 | 257 | 0.0 | 0.0 | 0.03 | 0.46 | 0.08 | 98 | 1010.3 |
| 20260505015056 | 12 | 257 | 0.0 | 0.0 | 0.03 | 0.46 | 0.08 | 98 | 1010.3 |
| 20260505014058 | 12 | 258 | 0.0 | 3.2 | 0.03 | 0.46 | 0.08 | 98 | 1010.3 |
| 20260505013104 | 13 | 258 | 0.0 | 1.6 | 0.03 | 0.46 | 0.08 | 98 | 1010.5 |
| 20260505012058 | 13 | 261 | 0.0 | 3.2 | 0.00 | 0.43 | 0.05 | 98 | 1010.5 |
| 20260505010100 | 13 | 249 | 1.6 | 4.8 | 0.00 | 0.43 | 0.05 | 98 | 1010.7 |
| 20260505005103 | 13 | 240 | 1.6 | 4.8 | 0.03 | 0.43 | 0.05 | 98 | 1010.7 |
| 20260505004056 | 13 | 255 | 3.2 | 4.8 | 0.03 | 0.43 | 0.05 | 98 | 1010.9 |
| 20260505003056 | 13 | 249 | 0.0 | 1.6 | 0.03 | 0.43 | 0.05 | 98 | 1010.8 |